| time (UTC) | temp F | wind direction | speed MPH | gust MPH | rain 1hr in | rain 24hr in | rain mn in | humidity % | barometer mb |
| 20260506163039 | 59 | 182 | 3.0 | 6.0 | 0.00 | 1.14 | 1.03 | 72 | 1009.1 |
| 20260506161540 | 60 | 216 | 2.0 | 4.0 | 0.00 | 1.14 | 1.03 | 71 | 1009.2 |
| 20260506160040 | 61 | 171 | 3.0 | 7.0 | 0.00 | 1.14 | 1.03 | 69 | 1009.2 |
| 20260506154534 | 60 | 169 | 4.0 | 9.0 | 0.00 | 1.14 | 1.03 | 70 | 1009.1 |
| 20260506153029 | 59 | 153 | 2.0 | 7.0 | 0.00 | 1.14 | 1.03 | 74 | 1009.1 |
| 20260506151529 | 59 | 115 | 4.0 | 8.0 | 0.00 | 1.14 | 1.03 | 78 | 1009.2 |
| 20260506150027 | 59 | 151 | 5.0 | 10.0 | 0.00 | 1.14 | 1.03 | 76 | 1009.3 |
| 20260506144524 | 58 | 191 | 4.0 | 9.0 | 0.00 | 1.15 | 1.03 | 79 | 1009.3 |
| 20260506143030 | 58 | 144 | 6.0 | 11.0 | 0.00 | 1.15 | 1.03 | 81 | 1009.3 |
| 20260506141520 | 57 | 161 | 5.0 | 9.0 | 0.00 | 1.15 | 1.03 | 84 | 1009.6 |
| 20260506140017 | 56 | 160 | 3.0 | 9.0 | 0.00 | 1.15 | 1.03 | 87 | 1009.7 |
| 20260506134513 | 54 | 155 | 4.0 | 10.0 | 0.00 | 1.27 | 1.03 | 89 | 1009.8 |
| 20260506133012 | 54 | 144 | 5.0 | 12.0 | 0.00 | 1.27 | 1.03 | 89 | 1009.9 |
| 20260506131512 | 54 | 130 | 6.0 | 12.0 | 0.00 | 1.27 | 1.03 | 89 | 1010.0 |
| 20260506130014 | 54 | 197 | 5.0 | 12.0 | 0.00 | 1.27 | 1.03 | 91 | 1010.0 |
| 20260506124510 | 54 | 169 | 6.0 | 12.0 | 0.00 | 1.27 | 1.03 | 90 | 1009.9 |
| 20260506123010 | 55 | 146 | 6.0 | 10.0 | 0.00 | 1.27 | 1.03 | 91 | 1009.8 |
| 20260506121510 | 55 | 149 | 3.0 | 9.0 | 0.01 | 1.27 | 1.03 | 91 | 1009.9 |
| 20260506120008 | 55 | 199 | 5.0 | 10.0 | 0.01 | 1.27 | 1.03 | 92 | 1010.0 |
| 20260506114506 | 54 | 196 | 5.0 | 10.0 | 0.01 | 1.27 | 1.03 | 94 | 1010.0 |
| 20260506113007 | 52 | 180 | 5.0 | 11.0 | 0.01 | 1.26 | 1.02 | 95 | 1010.1 |
| 20260506111503 | 51 | 178 | 5.0 | 12.0 | 0.02 | 1.26 | 1.02 | 95 | 1010.2 |
| 20260506110002 | 52 | 159 | 5.0 | 13.0 | 0.05 | 1.26 | 1.02 | 96 | 1010.2 |
| 20260506104601 | 51 | 144 | 4.0 | 7.0 | 0.07 | 1.26 | 1.02 | 96 | 1010.2 |
| 20260506103105 | 50 | 162 | 3.0 | 9.0 | 0.09 | 1.25 | 1.02 | 96 | 1010.2 |
| 20260506101553 | 50 | 184 | 4.0 | 10.0 | 0.13 | 1.24 | 1.01 | 96 | 1010.1 |
| 20260506100051 | 50 | 146 | 3.0 | 7.0 | 0.13 | 1.21 | 0.98 | 95 | 1010.0 |
| 20260506094550 | 50 | 176 | 4.0 | 9.0 | 0.14 | 1.19 | 0.95 | 95 | 1009.9 |
| 20260506093047 | 50 | 167 | 5.0 | 8.0 | 0.14 | 1.15 | 0.92 | 96 | 1009.8 |
| 20260506091547 | 50 | 180 | 4.0 | 9.0 | 0.13 | 1.11 | 0.87 | 95 | 1009.6 |
| 20260506090050 | 50 | 181 | 4.0 | 10.0 | 0.13 | 1.08 | 0.84 | 95 | 1009.3 |
| 20260506084559 | 50 | 163 | 4.0 | 7.0 | 0.13 | 1.06 | 0.81 | 95 | 1009.2 |
| 20260506083043 | 50 | 175 | 3.0 | 6.0 | 0.14 | 1.03 | 0.78 | 95 | 1008.9 |
| 20260506081542 | 50 | 200 | 2.0 | 6.0 | 0.15 | 1.00 | 0.75 | 95 | 1008.8 |
| 20260506073035 | 51 | 219 | 2.0 | 7.0 | 0.18 | 0.89 | 0.64 | 96 | 1008.3 |
| 20260506071535 | 51 | 197 | 3.0 | 7.0 | 0.19 | 0.85 | 0.60 | 96 | 1008.1 |
| 20260506061545 | 51 | 213 | 5.0 | 10.0 | 0.19 | 0.67 | 0.41 | 95 | 1007.2 |
| 20260506044524 | 51 | 226 | 0.0 | 3.0 | 0.15 | 0.43 | 0.17 | 95 | 1006.6 |
| 20260506043035 | 51 | 192 | 0.0 | 3.0 | 0.13 | 0.40 | 0.13 | 95 | 1006.7 |
| 20260506041521 | 51 | 181 | 2.0 | 4.0 | 0.09 | 0.36 | 0.09 | 94 | 1006.7 |
| 20260506040019 | 51 | 173 | 3.0 | 4.0 | 0.04 | 0.31 | 0.05 | 94 | 1006.9 |
| 20260506034517 | 51 | 210 | 1.0 | 3.0 | 0.01 | 0.30 | 0.02 | 94 | 1006.9 |
| 20260506033018 | 51 | 202 | 1.0 | 3.0 | 0.00 | 0.28 | 0.01 | 94 | 1006.8 |
| 20260506031515 | 51 | 200 | 2.0 | 4.0 | 0.00 | 0.28 | 0.01 | 94 | 1006.8 |
| 20260506030019 | 51 | 175 | 1.0 | 3.0 | 0.00 | 0.28 | 0.01 | 94 | 1006.8 |
| 20260506024532 | 51 | 158 | 0.0 | 3.0 | 0.00 | 0.37 | 0.01 | 94 | 1007.1 |
| 20260506023014 | 51 | 155 | 1.0 | 3.0 | 0.00 | 0.37 | 0.01 | 94 | 1007.3 |
| 20260506021512 | 51 | 165 | 0.0 | 0.0 | 0.00 | 0.37 | 0.01 | 94 | 1007.2 |
| 20260506020011 | 52 | 165 | 0.0 | 0.0 | 0.00 | 0.37 | 0.01 | 94 | 1007.2 |
| 20260506014510 | 52 | 165 | 0.0 | 0.0 | 0.00 | 0.40 | 0.01 | 94 | 1007.2 |
| 20260506013006 | 52 | 165 | 1.0 | 4.0 | 0.00 | 0.40 | 0.01 | 94 | 1007.5 |
| 20260506011506 | 52 | 174 | 2.0 | 5.0 | 0.01 | 0.40 | 0.01 | 94 | 1007.8 |
| 20260506010006 | 52 | 194 | 2.0 | 6.0 | 0.01 | 0.47 | 0.01 | 94 | 1007.9 |
| 20260506004505 | 52 | 188 | 1.0 | 6.0 | 0.01 | 0.47 | 0.01 | 94 | 1008.1 |
| 20260506003100 | 52 | 194 | 2.0 | 5.0 | 0.01 | 0.47 | 0.01 | 93 | 1008.2 |
| 20260506001558 | 52 | 195 | 2.0 | 7.0 | 0.00 | 0.46 | 0.00 | 93 | 1008.4 |
| 20260506000055 | 52 | 213 | 2.0 | 6.0 | 0.00 | 0.46 | 0.00 | 93 | 1008.7 |
| 20260505234606 | 52 | 222 | 3.0 | 9.0 | 0.00 | 0.56 | 0.00 | 93 | 1008.8 |
| 20260505233052 | 52 | 184 | 3.0 | 7.0 | 0.00 | 0.56 | 0.00 | 92 | 1008.6 |
| 20260505231604 | 53 | 148 | 2.0 | 7.0 | 0.00 | 0.56 | 0.00 | 92 | 1008.6 |
| 20260505230051 | 53 | 150 | 3.0 | 8.0 | 0.00 | 0.56 | 0.00 | 92 | 1008.8 |
| 20260505224545 | 53 | 181 | 4.0 | 9.0 | 0.01 | 0.56 | 0.00 | 93 | 1009.1 |
| 20260505223040 | 54 | 147 | 2.0 | 6.0 | 0.04 | 0.56 | 0.00 | 94 | 1009.4 |
| 20260505221539 | 54 | 178 | 0.0 | 3.0 | 0.05 | 0.56 | 0.00 | 93 | 1009.7 |
| 20260505220038 | 54 | 258 | 0.0 | 3.0 | 0.05 | 0.56 | 0.00 | 93 | 1010.0 |
| 20260505214558 | 54 | 232 | 3.0 | 9.0 | 0.04 | 0.56 | 0.56 | 92 | 1009.9 |
| 20260505213033 | 56 | 220 | 6.0 | 13.0 | 0.01 | 0.53 | 0.53 | 88 | 1009.8 |
| 20260505211535 | 56 | 208 | 8.0 | 14.0 | 0.00 | 0.52 | 0.52 | 88 | 1009.4 |
| 20260505210036 | 56 | 190 | 5.0 | 9.0 | 0.00 | 0.52 | 0.52 | 91 | 1009.4 |
| 20260505204534 | 55 | 157 | 2.0 | 5.0 | 0.00 | 0.52 | 0.52 | 91 | 1009.4 |
| 20260505203030 | 55 | 159 | 3.0 | 6.0 | 0.00 | 0.52 | 0.52 | 92 | 1009.4 |
| 20260505201530 | 55 | 151 | 3.0 | 5.0 | 0.01 | 0.52 | 0.52 | 93 | 1009.1 |
| 20260505200041 | 55 | 161 | 1.0 | 4.0 | 0.02 | 0.52 | 0.52 | 92 | 1008.9 |
| 20260505194529 | 56 | 123 | 0.0 | 3.0 | 0.02 | 0.52 | 0.52 | 92 | 1008.8 |
| 20260505193023 | 56 | 167 | 0.0 | 0.0 | 0.04 | 0.52 | 0.52 | 92 | 1008.6 |
| 20260505191522 | 56 | 167 | 0.0 | 2.0 | 0.03 | 0.51 | 0.51 | 91 | 1008.5 |
| 20260505190047 | 57 | 167 | 1.0 | 2.0 | 0.03 | 0.50 | 0.50 | 89 | 1008.2 |
| 20260505184546 | 57 | 167 | 0.0 | 0.0 | 0.03 | 0.50 | 0.50 | 87 | 1008.0 |
| 20260505183055 | 58 | 167 | 0.0 | 0.0 | 0.01 | 0.48 | 0.48 | 85 | 1007.8 |
| 20260505181549 | 59 | 167 | 0.0 | 4.0 | 0.02 | 0.48 | 0.48 | 82 | 1007.8 |
| 20260505180050 | 60 | 115 | 1.0 | 4.0 | 0.02 | 0.47 | 0.47 | 82 | 1007.7 |
| 20260505174555 | 60 | 153 | 1.0 | 9.0 | 0.02 | 0.48 | 0.47 | 81 | 1007.8 |
| 20260505173043 | 60 | 213 | 3.0 | 7.0 | 0.02 | 0.48 | 0.47 | 84 | 1007.8 |
| 20260505171546 | 60 | 111 | 4.0 | 8.0 | 0.01 | 0.46 | 0.46 | 83 | 1007.8 |
| 20260505170039 | 60 | 132 | 4.0 | 7.0 | 0.00 | 0.46 | 0.45 | 85 | 1007.9 |
| 20260505164539 | 59 | 77 | 6.0 | 9.0 | 0.00 | 0.46 | 0.45 | 88 | 1008.0 |